User: anonymous   Login
Location: Unspecified
(0.0000°N, 0.0000°E)
Time: 19:13:54
(UTC+00:00)
Language:

Tiros 1 despin weight - Orbit

View from above orbital plane
View from above orbital plane
View from above satellite
View from above satellite

Ground track
Ground track

The orbit data is extracted from the following two-line orbital elements,

1   115U 60002D   19107.57828369 -.00000014 +00000-0 +25436-4 0  9991
2   115 048.1657 166.6494 0034654 168.9101 191.2583 14.83428524128432
Epoch (UTC): 17 April 2019 13:52:43
Eccentricity: 0.0034654
inclination: 48.1657°
perigee height: 594 km
apogee height: 643 km
right ascension of ascending node: 166.6494°
argument of perigee: 168.9101°
revolutions per day: 14.83428524
mean anomaly at epoch: 191.2583°
orbit number at epoch: 12843

The dashed part of the orbit path shows where the satellite is in the earth's shadow,  

DLR